Weather Roundup
Issued by NWS Chicago, IL

Home | Current Version | Previous Version | Graphics & Text | Print | Product List | Glossary On
Versions: 1 2 3 4 5 6 7 8 9 10 11 12 13 14 15 16 17 18 19 20 21 22 23 24 25 26 27 28 29 30 31 32 33 34 35 36 37 38 39 40 41 42 43 44 45 46 47 48 49 50
000
NZUS59 KLOT 261508
HRRLOT

CHICAGO AREA WEATHER ROUNDUP
NATIONAL WEATHER SERVICE CHICAGO/ROMEOVILLE IL
1000 AM CDT MON SEP 26 2016

NOTE: "FAIR" INDICATES FEW OR NO CLOUDS BELOW 12,000 FEET WITH NO
SIGNIFICANT WEATHER AND/OR OBSTRUCTIONS TO VISIBILITY.

* THESE STATIONS ARE NOT UNDER NWS QUALITY CONTROL. THEY ALSO MAY NOT
  REPORT WEATHER SUCH AS PRECIPITATION OR FOG.

ILZ005-006-012>014-019>023-261600-
NORTHEAST ILLINOIS

CITY           SKY/WX    TMP DP  RH WIND       PRES   REMARKS
OHARE          MOSUNNY   63  45  51 W18       29.99S
MIDWAY         MOSUNNY   65  45  48 W15       30.00S
AURORA         SUNNY     64  44  48 W20       30.02S
LANSING*       SUNNY     64  50  61 W13G18    30.01F
JOLIET*        SUNNY     65  46  49 W13       30.03S
WAUKEGAN       SUNNY     62  45  53 W9G18     29.95F
DUPAGE AIRPORT SUNNY     63  44  50 W17       30.00F
WHEELING       SUNNY     62  44  51 W14G22    29.99S
KANKAKEE*      SUNNY     64  47  54 W15       30.06S
MORRIS*        SUNNY     65  41  42 W20G26    30.03S
LEWIS AIRPORT* SUNNY     64  49  58 W12G18    30.02F
NORTHERLY ISL    N/A     63  43  48 W12         N/A
$$

WIZ051-052-058>065-066-070>072-261600-
SOUTHEAST WISCONSIN

CITY           SKY/WX    TMP DP  RH WIND       PRES   REMARKS
MILWAUKEE      MOSUNNY   62  45  53 W20G28    29.94R
KENOSHA*       SUNNY     61  46  57 W18G24    29.96R
RACINE*        SUNNY     61  44  53 W17G25    29.96R
BURLINGTON     SUNNY     59  44  57 W10G20    29.96S
WAUKESHA       SUNNY     57  45  62 W17G23    29.95R
WEST BEND      SUNNY     59  45  58 W17G24    29.90F
$$

INZ001>003-010>013-019-020-261600-
NORTHWEST INDIANA

CITY           SKY/WX    TMP DP  RH WIND       PRES   REMARKS
GARY*            N/A     64  48  55 W14G26    30.02S
MICHIGAN CITY* NOT AVBL
RENSSELAER*    NOT AVBL
VALPARAISO     CLOUDY    61  51  70 W12       30.02F
$$

LMZ740>746-261600-
SOUTHERN LAKE MICHIGAN

STATION/POSITION TIME  SKY/WX   TEMP WIND        PRES    VSBY
                                AIR  DIR/SP/G
                 (UTC)          (F)  (DEG/KT/KT) (MB)    (MI)
HARRISON CRIB    1400            61  260/ 18/ 20   N/A
BURNHAM HARBOR   1500            63  270/ 13       N/A
CALUMET HARBOR   1400            60  240/  7/ 14 1015.7S
BURNS HARBOR     1400            61  260/ 16/ 20 1016.6R
MICHIGAN CITY    1400            61  230/ 21/ 23   N/A
$$

ABBREVIATIONS USED IN REMARKS
   TC - TEMPERATURE IN CELSIUS
  WCI - WIND CHILL INDEX
   HX - HEAT INDEX
  VSB - VISIBILITY
$$



USA.gov is the U.S. government's official web portal to all federal, state and local government web resources and services.